Despina — SVDK — position and weather

sailwx.info

Track history (hours):
 
Tides and Currents Weather Stations Pressure Air Temp Water Temp Dewpoint Dewpoint Depression Visibility Wind Speed Wind Dir Waves Ship Positions

Despina

Last reported at 2014-Aug-31 22:17 UTC. Time now 2014-Sep-02 21:26 UTC.
Position N 36°35' E 014°42'.

Length 224 m; draft 11.9 m.

Type: Cargo ship. MMSI: 239469000.

Date/timePositionNaut miles runAvg speedWind from/ knotsBaromVisibWave heightAir tempDewpointWater temp
2014-Aug-31 22:17N 36°35' E 014°42'1114.5
2014-Aug-31 21:33N 36°36' E 014°28'1414.3
2014-Aug-31 20:33N 36°39' E 014°11'1413.8
2014-Aug-31 19:34N 36°42' E 013°54'1414.1
2014-Aug-31 18:33N 36°47' E 013°38'1414.0
2014-Aug-31 17:33N 36°50' E 013°21'1413.9
2014-Aug-31 16:33N 36°53' E 013°04'1413.7
2014-Aug-31 15:33N 36°56' E 012°47'1514.0
2014-Aug-31 14:29N 36°60' E 012°29'1414.6
2014-Aug-31 13:33N 37°04' E 012°12'1414.3
2014-Aug-31 12:33N 37°08' E 011°55'1414.2
2014-Aug-31 11:33N 37°13' E 011°38'1614.1
2014-Aug-31 10:26N 37°18' E 011°20'1314.0
2014-Aug-31 09:29N 37°25' E 011°05'1513.4
2014-Aug-31 08:21N 37°28' E 010°47'1113.9
2014-Aug-31 07:33N 37°31' E 010°33'1414.0
2014-Aug-31 06:33N 37°34' E 010°16'1414.3
2014-Aug-31 05:33N 37°33' E 009°58'1514.5
2014-Aug-31 04:33N 37°29' E 009°40'1514.6
2014-Aug-31 03:33N 37°25' E 009°22'1514.8
2014-Aug-31 02:32N 37°21' E 009°04'1414.6
2014-Aug-31 01:33N 37°20' E 008°46'1514.4
2014-Aug-31 00:32N 37°19' E 008°28'1414.0
2014-Aug-30 23:33N 37°19' E 008°10'1313.6
2014-Aug-30 22:33N 37°19' E 007°54'3614.5
2014-Aug-30 20:04N 37°18' E 007°08'713.8
2014-Aug-30 19:32N 37°18' E 006°59'1414.2
2014-Aug-30 18:32N 37°18' E 006°41'1814.3
2014-Aug-30 17:18N 37°17' E 006°19'1114.3
2014-Aug-30 16:32N 37°16' E 006°05'5513.8
2014-Aug-30 12:33N 37°16' E 004°56'8014.6
2014-Aug-30 07:04N 37°07' E 003°17'2315.2
2014-Aug-30 05:33N 37°02' E 002°48'1515.1
2014-Aug-30 04:33N 36°60' E 002°30'1514.7
2014-Aug-30 03:33N 36°56' E 002°12'1514.7
2014-Aug-30 02:33N 36°53' E 001°54'1414.4
2014-Aug-30 01:33N 36°50' E 001°36'1614.7
2014-Aug-30 00:29N 36°47' E 001°17'1514.9
2014-Aug-29 23:30N 36°44' E 000°59'1414.8
2014-Aug-29 22:33N 36°42' E 000°42'1414.5
2014-Aug-29 21:33N 36°39' E 000°24'1514.5
2014-Aug-29 20:32N 36°36' E 000°06'1414.4
2014-Aug-29 19:33N 36°33' W 000°11'1414.2
2014-Aug-29 18:34N 36°30' W 000°28'1413.8
2014-Aug-29 17:33N 36°27' W 000°45'1414.3
2014-Aug-29 16:33N 36°24' W 001°02'1814.0
2014-Aug-29 15:14N 36°21' W 001°25'913.7
2014-Aug-29 14:33N 36°19' W 001°36'1414.1
2014-Aug-29 13:33N 36°16' W 001°54'1614.5
2014-Aug-29 12:27N 36°13' W 002°13'1614.8
2014-Aug-29 11:21N 36°10' W 002°33'2814.2
2014-Aug-29 09:21N 36°08' W 003°08'10615.2
2014-Aug-29 02:22N 36°05' W 005°19'5 0.2
2014-Aug-28 00:32N 36°01' W 005°16'22413.2
2014-Aug-27 07:33N 33°32' W 008°41'1313.3
2014-Aug-27 06:33N 33°23' W 008°52'1313.1
2014-Aug-27 05:33N 33°14' W 009°03'1412.9
2014-Aug-27 04:26N 33°03' W 009°15'2513.0
2014-Aug-27 02:33N 32°45' W 009°35'1413.2
2014-Aug-27 01:31N 32°35' W 009°46'1512.9
2014-Aug-27 00:21N 32°24' W 009°58'  
Track history (hours):
 
Tides and Currents Weather Stations Pressure Air Temp Water Temp Dewpoint Dewpoint Depression Visibility Wind Speed Wind Dir Waves Ship Positions

Despina

Last reported at 2014-Aug-31 22:17 UTC. Time now 2014-Sep-02 21:26 UTC.
Position N 36°35' E 014°42'.

Length 224 m; draft 11.9 m.

Type: Cargo ship. MMSI: 239469000.

Date/timePositionNaut miles runAvg speedWind from/ knotsBaromVisibWave heightAir tempDewpointWater temp
2014-Aug-31 22:17N 36°35' E 014°42'1114.5
2014-Aug-31 21:33N 36°36' E 014°28'1414.3
2014-Aug-31 20:33N 36°39' E 014°11'1413.8
2014-Aug-31 19:34N 36°42' E 013°54'1414.1
2014-Aug-31 18:33N 36°47' E 013°38'1414.0
2014-Aug-31 17:33N 36°50' E 013°21'1413.9
2014-Aug-31 16:33N 36°53' E 013°04'1413.7
2014-Aug-31 15:33N 36°56' E 012°47'1514.0
2014-Aug-31 14:29N 36°60' E 012°29'1414.6
2014-Aug-31 13:33N 37°04' E 012°12'1414.3
2014-Aug-31 12:33N 37°08' E 011°55'1414.2
2014-Aug-31 11:33N 37°13' E 011°38'1614.1
2014-Aug-31 10:26N 37°18' E 011°20'1314.0
2014-Aug-31 09:29N 37°25' E 011°05'1513.4
2014-Aug-31 08:21N 37°28' E 010°47'1113.9
2014-Aug-31 07:33N 37°31' E 010°33'1414.0
2014-Aug-31 06:33N 37°34' E 010°16'1414.3
2014-Aug-31 05:33N 37°33' E 009°58'1514.5
2014-Aug-31 04:33N 37°29' E 009°40'1514.6
2014-Aug-31 03:33N 37°25' E 009°22'1514.8
2014-Aug-31 02:32N 37°21' E 009°04'1414.6
2014-Aug-31 01:33N 37°20' E 008°46'1514.4
2014-Aug-31 00:32N 37°19' E 008°28'1414.0
2014-Aug-30 23:33N 37°19' E 008°10'1313.6
2014-Aug-30 22:33N 37°19' E 007°54'3614.5
2014-Aug-30 20:04N 37°18' E 007°08'713.8
2014-Aug-30 19:32N 37°18' E 006°59'1414.2
2014-Aug-30 18:32N 37°18' E 006°41'1814.3
2014-Aug-30 17:18N 37°17' E 006°19'1114.3
2014-Aug-30 16:32N 37°16' E 006°05'5513.8
2014-Aug-30 12:33N 37°16' E 004°56'8014.6
2014-Aug-30 07:04N 37°07' E 003°17'2315.2
2014-Aug-30 05:33N 37°02' E 002°48'1515.1
2014-Aug-30 04:33N 36°60' E 002°30'1514.7
2014-Aug-30 03:33N 36°56' E 002°12'1514.7
2014-Aug-30 02:33N 36°53' E 001°54'1414.4
2014-Aug-30 01:33N 36°50' E 001°36'1614.7
2014-Aug-30 00:29N 36°47' E 001°17'1514.9
2014-Aug-29 23:30N 36°44' E 000°59'1414.8
2014-Aug-29 22:33N 36°42' E 000°42'1414.5
2014-Aug-29 21:33N 36°39' E 000°24'1514.5
2014-Aug-29 20:32N 36°36' E 000°06'1414.4
2014-Aug-29 19:33N 36°33' W 000°11'1414.2
2014-Aug-29 18:34N 36°30' W 000°28'1413.8
2014-Aug-29 17:33N 36°27' W 000°45'1414.3
2014-Aug-29 16:33N 36°24' W 001°02'1814.0
2014-Aug-29 15:14N 36°21' W 001°25'913.7
2014-Aug-29 14:33N 36°19' W 001°36'1414.1
2014-Aug-29 13:33N 36°16' W 001°54'1614.5
2014-Aug-29 12:27N 36°13' W 002°13'1614.8
2014-Aug-29 11:21N 36°10' W 002°33'2814.2
2014-Aug-29 09:21N 36°08' W 003°08'10615.2
2014-Aug-29 02:22N 36°05' W 005°19'5 0.2
2014-Aug-28 00:32N 36°01' W 005°16'22413.2
2014-Aug-27 07:33N 33°32' W 008°41'1313.3
2014-Aug-27 06:33N 33°23' W 008°52'1313.1
2014-Aug-27 05:33N 33°14' W 009°03'1412.9
2014-Aug-27 04:26N 33°03' W 009°15'2513.0
2014-Aug-27 02:33N 32°45' W 009°35'1413.2
2014-Aug-27 01:31N 32°35' W 009°46'1512.9
2014-Aug-27 00:21N 32°24' W 009°58'  

Dump ship's entire track history